Regional Weather Roundup
Issued by NWS

Home | Current Version | Previous Version | Graphics & Text | Print | Product List | Glossary On
Versions: 1 2 3 4 5 6 7 8 9 10 11 12 13 14 15 16 17 18 19 20 21 22 23 24 25 26 27 28 29 30 31 32 33 34 35 36 37 38 39 40 41 42 43 44 45 46 47 48 49 50
000
ASUS43 KIND 181509
RWRIN

WEATHER ROUNDUP FOR INDIANA
NATIONAL WEATHER SERVICE INDIANAPOLIS IN
1000 AM EST THU DEC 18 2014

NOTE: "FAIR" INDICATES FEW OR NO CLOUDS BELOW 12,000 FEET WITH NO
SIGNIFICANT WEATHER AND/OR OBSTRUCTIONS TO VISIBILITY.

* - STATION DOES NOT REPORT WEATHER SUCH AS PRECIPITATION OR FOG.

+ - STATION NOT QUALITY CONTROLLED BY THE NATIONAL WEATHER SERVICE.
    USE DATA WITH CAUTION...ESPECIALLY DEWPOINT AND RELATIVE
    HUMIDITY OBSERVATIONS.

INZ001>003-010>013-019-020-181600-
NORTHWEST INDIANA

CITY           SKY/WX    TMP DP  RH WIND       PRES   REMARKS
GARY /AIRPORT/ CLOUDY    27  18  69 W6        30.31R WCI  20
KNOX *+        CLOUDY    26  17  71 SW5       30.28S WCI  20
LA PORTE +     CLOUDY    28  22  79 SW6       30.29R WCI  21
MICHIGAN CITY+ CLOUDY    27  19  74 SW5       30.30R WCI  21
MONTICELLO +   CLOUDY    25  19  77 SW3       30.30R
RENSSELAER +   CLOUDY    27  23  86 SW5       30.32R WCI  21
VALPARAISO     CLOUDY    24  17  74 SW7       30.29R WCI  16

$$

LMZ046-743>745-181600-
SOUTHERN LAKE MICHIGAN

STATION/POSITION TIME  TEMP WIND        PRES
                       AIR  DIR/SP/G
                 (UTC) (F)  (DEG/KT/KT) (MB)

$$

INZ004-005-014>016-021>024-181600-
NORTH CENTRAL INDIANA

CITY           SKY/WX    TMP DP  RH WIND       PRES   REMARKS
ELKHART        CLOUDY    28  21  74 SW8       30.27  WCI  20
GOSHEN         CLOUDY    27  22  81 W8        30.26S WCI  19
LOGANSPORT +   CLOUDY    27  19  74 SW6       30.31R WCI  20
ROCHESTER +    CLOUDY    28  23  80 W6        30.30R WCI  22
SOUTH BEND     CLOUDY    27  20  75 SW6       30.28R WCI  20
WARSAW +       CLOUDY    27  21  80 W5        30.27S WCI  21

$$

INZ006>009-017-018-025>027-181600-
NORTHEAST INDIANA

CITY           SKY/WX    TMP DP  RH WIND       PRES   REMARKS
ANGOLA *+      CLOUDY    27  25  93 W7        30.23S WCI  19
AUBURN +       CLOUDY    28  23  80 W5        30.26S WCI  23
FORT WAYNE     FLURRIES  27  21  78 SW6       30.27S WCI  20
HUNTINGTON +   CLOUDY    26  21  82 CALM      30.28R

$$

INZ028-029-035-036-043>045-051>053-181600-
WEST CENTRAL INDIANA

CITY           SKY/WX    TMP DP  RH WIND       PRES   REMARKS
GREENCASTLE +  CLOUDY    27  18  69 CALM      30.30S
LAFAYETTE      CLOUDY    24  18  77 W6        30.32R WCI  17
TERRE HAUTE    CLOUDY    26  19  74 CALM      30.32S

$$

INZ030>032-037>040-046>048-054>057-064-065-181600-
CENTRAL INDIANA

CITY           SKY/WX    TMP DP  RH WIND       PRES   REMARKS
ANDERSON       CLOUDY    27  18  69 CALM      30.29
CP ATTERBURY + CLOUDY    28  21  74 MISG      30.32R
COLUMBUS       CLOUDY    27  21  80 CALM      30.32R
FRANKFORT +    CLOUDY    26  20  79 CALM      30.31R
INDIANAPOLIS   CLOUDY    25  19  78 SW5       30.30R WCI  19
-EAGLE CREEK   CLOUDY    25  18  74 CALM      30.30R
KOKOMO *+      CLOUDY    27  18  69 SW3       30.29R
MARION +       CLOUDY    26  21  83 W3        30.29R
MT COMFORT *+  CLOUDY    27  16  63 CALM      30.29S
SHELBYVILLE    CLOUDY    27  19  72 CALM      30.29R
ZIONSVILLE +   CLOUDY    26  19  74 CALM      30.30R

$$

INZ033-034-041-042-049-050-058-059-181600-
EAST CENTRAL INDIANA

CITY           SKY/WX    TMP DP  RH WIND       PRES   REMARKS
MUNCIE         CLOUDY    26  19  74 CALM      30.28S

$$

INZ060-061-067>069-081>083-085>088-181600-
SOUTHWEST INDIANA

CITY           SKY/WX    TMP DP  RH WIND       PRES   REMARKS
EVANSVILLE     CLOUDY    31  25  78 N7        30.30F WCI  24
HUNTINGBURG *+ PTSUNNY   28  23  80 N3        30.31R
WASHINGTON +   CLOUDY    28  20  73 CALM      30.33R

$$

INZ062-063-066-070>080-084-089>092-181600-
SOUTH CENTRAL AND SOUTHEAST INDIANA

CITY           SKY/WX    TMP DP  RH WIND       PRES   REMARKS
BLOOMINGTON    CLOUDY    26  21  81 NE3       30.29R

$$



USA.gov is the U.S. government's official web portal to all federal, state and local government web resources and services.